Tracking 21094 objects as of 12-Aug-2020
HD Live streaming from Space Station
objects crossing your sky now
Track the most recent launched group of Starlink satellites

TANSUO 1

Track TANSUO 1 now!
10-day predictions
TANSUO 1 is classified as:


NORAD ID: 28220
Int'l Code: 2004-012A
Perigee: 561.0 km
Apogee: 586.8 km
Inclination: 97.8 °
Period: 96.0 minutes
Semi major axis: 6944 km
RCS: 1.6951 m2 (large)
Launch date: April 18, 2004
Source: People's Republic of China (PRC)
Launch site: Xichang Space Center, China (XSC)
aabbcc
Your satellite tracking list
Your tracking list is empty




NASA's NSSDC Master Catalog

Two Line Element Set (TLE):
1 28220U 04012A   20224.92274975 +.00000438 +00000-0 +40076-4 0  9992
2 28220 097.8471 194.4981 0018559 055.9037 304.3944 15.00046410888917
Source of the keplerian elements: AFSPC